Location: Clanezzo
(45.7500°N, 9.6000°E)
Time: 14:00:35
(UTC+00:00)

Cosmos 2327 Rocket - Pass Details

Date: 12 May 2021
Orbit: 944 x 1008 km, 83.0° (Epoch: 19 June)

Event Time Altitude Azimuth Distance (km) Brightness Sun altitude
Rises 21:06:53 0° 352° (N) 3,740 8.7 -19.3°
Reaches altitude 10° 21:09:25 10° 353° (N) 2,790 7.8 -19.6°
Maximum altitude 21:15:52 84° 81° (E) 1,020 4.5 -20.2°
Enters shadow 21:18:52 34° 168° (SSE) 1,584 5.1 -20.4°
